<?xml version="1.0" encoding="UTF-8" standalone="no" ?>
<gpx xmlns="http://www.topografix.com/GPX/1/1" creator="MapSource 6.11.6" version="1.1" xmlns:xsi="http://www.w3.org/2001/XMLSchema-instance" xsi:schemaLocation="http://www.topografix.com/GPX/1/1 http://www.topografix.com/GPX/1/1/gpx.xsd">

  <metadata>
    <link href="http://www.garmin.com">
      <text>Garmin International</text>
    </link>
    <time>2009-06-21T15:40:16Z</time>
    <bounds maxlat="50.664119" maxlon="6.408868" minlat="50.605273" minlon="6.372064"/>
  </metadata>

  <trk>
    <name>Schmidt-Rurberg kurz</name>
    <extensions>
      <gpxx:TrackExtension xmlns:gpxx="http://www.garmin.com/xmlschemas/GpxExtensions/v3" xmlns:xsi="http://www.w3.org/2001/XMLSchema-instance" xsi:schemaLocation="http://www.garmin.com/xmlschemas/GpxExtensions/v3 http://www.garmin.com/xmlschemas/GpxExtensions/v3/GpxExtensionsv3.xsd">
        <gpxx:DisplayColor>White</gpxx:DisplayColor>
      </gpxx:TrackExtension>
    </extensions>
    <trkseg>
      <trkpt lat="50.663868" lon="6.408527">
        <ele>435.000000</ele>
        <time>2009-06-20T17:42:16Z</time>
      </trkpt>
      <trkpt lat="50.664056" lon="6.408790">
        <ele>437.000000</ele>
        <time>2009-06-20T17:42:06Z</time>
      </trkpt>
      <trkpt lat="50.664119" lon="6.408868">
        <ele>437.000000</ele>
        <time>2009-06-20T17:42:03Z</time>
      </trkpt>
      <trkpt lat="50.663868" lon="6.408527">
        <ele>435.000000</ele>
        <time>2009-06-20T17:42:16Z</time>
      </trkpt>
      <trkpt lat="50.663773" lon="6.408386">
        <ele>435.000000</ele>
        <time>2009-06-20T17:42:22Z</time>
      </trkpt>
      <trkpt lat="50.663683" lon="6.408230">
        <ele>442.000000</ele>
        <time>2009-06-20T17:42:27Z</time>
      </trkpt>
      <trkpt lat="50.663612" lon="6.408095">
        <ele>442.000000</ele>
        <time>2009-06-20T17:42:31Z</time>
      </trkpt>
      <trkpt lat="50.663535" lon="6.407961">
        <ele>442.000000</ele>
        <time>2009-06-20T17:42:36Z</time>
      </trkpt>
      <trkpt lat="50.663441" lon="6.407783">
        <ele>441.000000</ele>
        <time>2009-06-20T17:42:42Z</time>
      </trkpt>
      <trkpt lat="50.663378" lon="6.407557">
        <ele>441.000000</ele>
        <time>2009-06-20T17:42:48Z</time>
      </trkpt>
      <trkpt lat="50.663351" lon="6.407387">
        <ele>441.000000</ele>
        <time>2009-06-20T17:42:53Z</time>
      </trkpt>
      <trkpt lat="50.663365" lon="6.407245">
        <ele>441.000000</ele>
        <time>2009-06-20T17:42:56Z</time>
      </trkpt>
      <trkpt lat="50.663360" lon="6.407245">
        <ele>441.000000</ele>
        <time>2009-06-20T17:42:56Z</time>
      </trkpt>
      <trkpt lat="50.663306" lon="6.407174">
        <ele>441.000000</ele>
        <time>2009-06-20T17:42:59Z</time>
      </trkpt>
      <trkpt lat="50.663207" lon="6.407082">
        <ele>440.000000</ele>
        <time>2009-06-20T17:43:04Z</time>
      </trkpt>
      <trkpt lat="50.663127" lon="6.406976">
        <ele>440.000000</ele>
        <time>2009-06-20T17:43:08Z</time>
      </trkpt>
      <trkpt lat="50.663122" lon="6.406976">
        <ele>440.000000</ele>
        <time>2009-06-20T17:43:08Z</time>
      </trkpt>
      <trkpt lat="50.663037" lon="6.406862">
        <ele>440.000000</ele>
        <time>2009-06-20T17:43:13Z</time>
      </trkpt>
      <trkpt lat="50.662942" lon="6.406713">
        <ele>440.000000</ele>
        <time>2009-06-20T17:43:18Z</time>
      </trkpt>
      <trkpt lat="50.662866" lon="6.406558">
        <ele>448.000000</ele>
        <time>2009-06-20T17:43:23Z</time>
      </trkpt>
      <trkpt lat="50.662866" lon="6.406551">
        <ele>448.000000</ele>
        <time>2009-06-20T17:43:23Z</time>
      </trkpt>
      <trkpt lat="50.662790" lon="6.406423">
        <ele>448.000000</ele>
        <time>2009-06-20T17:43:28Z</time>
      </trkpt>
      <trkpt lat="50.662718" lon="6.406295">
        <ele>448.000000</ele>
        <time>2009-06-20T17:43:32Z</time>
      </trkpt>
      <trkpt lat="50.662648" lon="6.406192">
        <ele>449.000000</ele>
        <time>2009-06-20T17:43:36Z</time>
      </trkpt>
      <trkpt lat="50.662648" lon="6.406200">
        <ele>449.000000</ele>
        <time>2009-06-20T17:43:36Z</time>
      </trkpt>
      <trkpt lat="50.662532" lon="6.406433">
        <ele>448.000000</ele>
        <time>2009-06-20T17:43:44Z</time>
      </trkpt>
      <trkpt lat="50.662527" lon="6.406433">
        <ele>448.000000</ele>
        <time>2009-06-20T17:43:44Z</time>
      </trkpt>
      <trkpt lat="50.662442" lon="6.406603">
        <ele>448.000000</ele>
        <time>2009-06-20T17:43:49Z</time>
      </trkpt>
      <trkpt lat="50.662442" lon="6.406611">
        <ele>448.000000</ele>
        <time>2009-06-20T17:43:49Z</time>
      </trkpt>
      <trkpt lat="50.662365" lon="6.406731">
        <ele>448.000000</ele>
        <time>2009-06-20T17:43:54Z</time>
      </trkpt>
      <trkpt lat="50.662361" lon="6.406745">
        <ele>448.000000</ele>
        <time>2009-06-20T17:43:54Z</time>
      </trkpt>
      <trkpt lat="50.662249" lon="6.406944">
        <ele>448.000000</ele>
        <time>2009-06-20T17:44:01Z</time>
      </trkpt>
      <trkpt lat="50.662123" lon="6.407184">
        <ele>448.000000</ele>
        <time>2009-06-20T17:44:09Z</time>
      </trkpt>
      <trkpt lat="50.661880" lon="6.407567">
        <ele>454.000000</ele>
        <time>2009-06-20T17:44:23Z</time>
      </trkpt>
      <trkpt lat="50.661750" lon="6.407383">
        <ele>454.000000</ele>
        <time>2009-06-20T17:44:30Z</time>
      </trkpt>
      <trkpt lat="50.661620" lon="6.407177">
        <ele>454.000000</ele>
        <time>2009-06-20T17:44:37Z</time>
      </trkpt>
      <trkpt lat="50.661521" lon="6.407007">
        <ele>455.000000</ele>
        <time>2009-06-20T17:44:43Z</time>
      </trkpt>
      <trkpt lat="50.661440" lon="6.406880">
        <ele>455.000000</ele>
        <time>2009-06-20T17:44:47Z</time>
      </trkpt>
      <trkpt lat="50.661436" lon="6.406880">
        <ele>455.000000</ele>
        <time>2009-06-20T17:44:48Z</time>
      </trkpt>
      <trkpt lat="50.661229" lon="6.406603">
        <ele>458.000000</ele>
        <time>2009-06-20T17:44:58Z</time>
      </trkpt>
      <trkpt lat="50.661126" lon="6.406476">
        <ele>458.000000</ele>
        <time>2009-06-20T17:45:04Z</time>
      </trkpt>
      <trkpt lat="50.661079" lon="6.406309">
        <ele>458.000000</ele>
        <time>2009-06-20T17:45:08Z</time>
      </trkpt>
      <trkpt lat="50.661034" lon="6.406146">
        <ele>460.000000</ele>
        <time>2009-06-20T17:45:13Z</time>
      </trkpt>
      <trkpt lat="50.661029" lon="6.406146">
        <ele>460.000000</ele>
        <time>2009-06-20T17:45:13Z</time>
      </trkpt>
      <trkpt lat="50.660984" lon="6.405983">
        <ele>460.000000</ele>
        <time>2009-06-20T17:45:17Z</time>
      </trkpt>
      <trkpt lat="50.660980" lon="6.405983">
        <ele>460.000000</ele>
        <time>2009-06-20T17:45:18Z</time>
      </trkpt>
      <trkpt lat="50.660953" lon="6.405828">
        <ele>460.000000</ele>
        <time>2009-06-20T17:45:22Z</time>
      </trkpt>
      <trkpt lat="50.660908" lon="6.405707">
        <ele>460.000000</ele>
        <time>2009-06-20T17:45:25Z</time>
      </trkpt>
      <trkpt lat="50.660836" lon="6.405523">
        <ele>460.000000</ele>
        <time>2009-06-20T17:45:31Z</time>
      </trkpt>
      <trkpt lat="50.660791" lon="6.405303">
        <ele>462.000000</ele>
        <time>2009-06-20T17:45:37Z</time>
      </trkpt>
      <trkpt lat="50.660769" lon="6.405126">
        <ele>462.000000</ele>
        <time>2009-06-20T17:45:41Z</time>
      </trkpt>
      <trkpt lat="50.660791" lon="6.404963">
        <ele>462.000000</ele>
        <time>2009-06-20T17:45:45Z</time>
      </trkpt>
      <trkpt lat="50.660827" lon="6.404772">
        <ele>462.000000</ele>
        <time>2009-06-20T17:45:51Z</time>
      </trkpt>
      <trkpt lat="50.660890" lon="6.404552">
        <ele>464.000000</ele>
        <time>2009-06-20T17:45:57Z</time>
      </trkpt>
      <trkpt lat="50.660962" lon="6.404304">
        <ele>464.000000</ele>
        <time>2009-06-20T17:46:04Z</time>
      </trkpt>
      <trkpt lat="50.661025" lon="6.404120">
        <ele>464.000000</ele>
        <time>2009-06-20T17:46:09Z</time>
      </trkpt>
      <trkpt lat="50.661092" lon="6.403915">
        <ele>464.000000</ele>
        <time>2009-06-20T17:46:15Z</time>
      </trkpt>
      <trkpt lat="50.661200" lon="6.403617">
        <ele>466.000000</ele>
        <time>2009-06-20T17:46:23Z</time>
      </trkpt>
      <trkpt lat="50.661285" lon="6.403376">
        <ele>461.000000</ele>
        <time>2009-06-20T17:46:30Z</time>
      </trkpt>
      <trkpt lat="50.661254" lon="6.403326">
        <ele>461.000000</ele>
        <time>2009-06-20T17:46:32Z</time>
      </trkpt>
      <trkpt lat="50.661141" lon="6.403263">
        <ele>466.000000</ele>
        <time>2009-06-20T17:46:37Z</time>
      </trkpt>
      <trkpt lat="50.660998" lon="6.403135">
        <ele>466.000000</ele>
        <time>2009-06-20T17:46:44Z</time>
      </trkpt>
      <trkpt lat="50.660872" lon="6.402972">
        <ele>466.000000</ele>
        <time>2009-06-20T17:46:50Z</time>
      </trkpt>
      <trkpt lat="50.660706" lon="6.402795">
        <ele>467.000000</ele>
        <time>2009-06-20T17:46:58Z</time>
      </trkpt>
      <trkpt lat="50.660580" lon="6.402632">
        <ele>467.000000</ele>
        <time>2009-06-20T17:47:05Z</time>
      </trkpt>
      <trkpt lat="50.660477" lon="6.402497">
        <ele>467.000000</ele>
        <time>2009-06-20T17:47:10Z</time>
      </trkpt>
      <trkpt lat="50.660369" lon="6.402342">
        <ele>470.000000</ele>
        <time>2009-06-20T17:47:16Z</time>
      </trkpt>
      <trkpt lat="50.660185" lon="6.402072">
        <ele>470.000000</ele>
        <time>2009-06-20T17:47:26Z</time>
      </trkpt>
      <trkpt lat="50.660063" lon="6.401867">
        <ele>470.000000</ele>
        <time>2009-06-20T17:47:33Z</time>
      </trkpt>
      <trkpt lat="50.659920" lon="6.401668">
        <ele>470.000000</ele>
        <time>2009-06-20T17:47:41Z</time>
      </trkpt>
      <trkpt lat="50.659771" lon="6.401442">
        <ele>470.000000</ele>
        <time>2009-06-20T17:47:49Z</time>
      </trkpt>
      <trkpt lat="50.659664" lon="6.401272">
        <ele>470.000000</ele>
        <time>2009-06-20T17:47:55Z</time>
      </trkpt>
      <trkpt lat="50.659520" lon="6.401045">
        <ele>477.000000</ele>
        <time>2009-06-20T17:48:03Z</time>
      </trkpt>
      <trkpt lat="50.659376" lon="6.400889">
        <ele>477.000000</ele>
        <time>2009-06-20T17:48:10Z</time>
      </trkpt>
      <trkpt lat="50.659236" lon="6.400769">
        <ele>477.000000</ele>
        <time>2009-06-20T17:48:17Z</time>
      </trkpt>
      <trkpt lat="50.659129" lon="6.400712">
        <ele>477.000000</ele>
        <time>2009-06-20T17:48:21Z</time>
      </trkpt>
      <trkpt lat="50.659030" lon="6.400620">
        <ele>477.000000</ele>
        <time>2009-06-20T17:48:26Z</time>
      </trkpt>
      <trkpt lat="50.658909" lon="6.400507">
        <ele>477.000000</ele>
        <time>2009-06-20T17:48:31Z</time>
      </trkpt>
      <trkpt lat="50.658778" lon="6.400380">
        <ele>478.000000</ele>
        <time>2009-06-20T17:48:37Z</time>
      </trkpt>
      <trkpt lat="50.658648" lon="6.400273">
        <ele>480.000000</ele>
        <time>2009-06-20T17:48:43Z</time>
      </trkpt>
      <trkpt lat="50.658572" lon="6.400294">
        <ele>480.000000</ele>
        <time>2009-06-20T17:48:46Z</time>
      </trkpt>
      <trkpt lat="50.658518" lon="6.400387">
        <ele>480.000000</ele>
        <time>2009-06-20T17:48:50Z</time>
      </trkpt>
      <trkpt lat="50.658518" lon="6.400394">
        <ele>480.000000</ele>
        <time>2009-06-20T17:48:50Z</time>
      </trkpt>
      <trkpt lat="50.658464" lon="6.400486">
        <ele>479.000000</ele>
        <time>2009-06-20T17:48:53Z</time>
      </trkpt>
      <trkpt lat="50.658405" lon="6.400585">
        <ele>479.000000</ele>
        <time>2009-06-20T17:48:56Z</time>
      </trkpt>
      <trkpt lat="50.658298" lon="6.400790">
        <ele>479.000000</ele>
        <time>2009-06-20T17:49:03Z</time>
      </trkpt>
      <trkpt lat="50.658293" lon="6.400805">
        <ele>479.000000</ele>
        <time>2009-06-20T17:49:04Z</time>
      </trkpt>
      <trkpt lat="50.658302" lon="6.400797"/>
      <trkpt lat="50.658208" lon="6.400966"/>
      <trkpt lat="50.658145" lon="6.401115"/>
      <trkpt lat="50.658086" lon="6.401026">
        <ele>485.600000</ele>
        <time>2009-06-21T12:24:46Z</time>
      </trkpt>
      <trkpt lat="50.657926" lon="6.400771">
        <ele>486.080000</ele>
        <time>2009-06-21T12:24:31Z</time>
      </trkpt>
      <trkpt lat="50.657900" lon="6.400722">
        <ele>486.080000</ele>
        <time>2009-06-21T12:24:28Z</time>
      </trkpt>
      <trkpt lat="50.657838" lon="6.400670">
        <ele>486.080000</ele>
        <time>2009-06-21T12:24:23Z</time>
      </trkpt>
      <trkpt lat="50.657687" lon="6.400513">
        <ele>486.560000</ele>
        <time>2009-06-21T12:24:09Z</time>
      </trkpt>
      <trkpt lat="50.657551" lon="6.400356">
        <ele>487.050000</ele>
        <time>2009-06-21T12:23:56Z</time>
      </trkpt>
      <trkpt lat="50.657496" lon="6.400175">
        <ele>487.530000</ele>
        <time>2009-06-21T12:23:47Z</time>
      </trkpt>
      <trkpt lat="50.657376" lon="6.400026">
        <ele>488.490000</ele>
        <time>2009-06-21T12:23:37Z</time>
      </trkpt>
      <trkpt lat="50.657244" lon="6.399752">
        <ele>487.530000</ele>
        <time>2009-06-21T12:23:20Z</time>
      </trkpt>
      <trkpt lat="50.657080" lon="6.399532">
        <ele>487.530000</ele>
        <time>2009-06-21T12:23:06Z</time>
      </trkpt>
      <trkpt lat="50.656930" lon="6.399244">
        <ele>488.010000</ele>
        <time>2009-06-21T12:22:52Z</time>
      </trkpt>
      <trkpt lat="50.656859" lon="6.399017">
        <ele>488.010000</ele>
        <time>2009-06-21T12:22:42Z</time>
      </trkpt>
      <trkpt lat="50.656685" lon="6.398834">
        <ele>488.010000</ele>
        <time>2009-06-21T12:22:29Z</time>
      </trkpt>
      <trkpt lat="50.656508" lon="6.398663">
        <ele>487.530000</ele>
        <time>2009-06-21T12:22:14Z</time>
      </trkpt>
      <trkpt lat="50.656372" lon="6.398531">
        <ele>487.530000</ele>
        <time>2009-06-21T12:21:58Z</time>
      </trkpt>
      <trkpt lat="50.656191" lon="6.398358">
        <ele>486.560000</ele>
        <time>2009-06-21T12:21:43Z</time>
      </trkpt>
      <trkpt lat="50.656045" lon="6.398186">
        <ele>486.560000</ele>
        <time>2009-06-21T12:21:29Z</time>
      </trkpt>
      <trkpt lat="50.655865" lon="6.398070">
        <ele>486.080000</ele>
        <time>2009-06-21T12:21:17Z</time>
      </trkpt>
      <trkpt lat="50.655694" lon="6.397917">
        <ele>485.120000</ele>
        <time>2009-06-21T12:21:03Z</time>
      </trkpt>
      <trkpt lat="50.655665" lon="6.397888">
        <ele>484.640000</ele>
        <time>2009-06-21T12:21:01Z</time>
      </trkpt>
      <trkpt lat="50.655452" lon="6.397686">
        <ele>483.200000</ele>
        <time>2009-06-21T12:20:42Z</time>
      </trkpt>
      <trkpt lat="50.655296" lon="6.397540">
        <ele>482.720000</ele>
        <time>2009-06-21T12:20:28Z</time>
      </trkpt>
      <trkpt lat="50.655167" lon="6.397332">
        <ele>481.760000</ele>
        <time>2009-06-21T12:20:13Z</time>
      </trkpt>
      <trkpt lat="50.655024" lon="6.397160">
        <ele>481.760000</ele>
        <time>2009-06-21T12:19:59Z</time>
      </trkpt>
      <trkpt lat="50.654887" lon="6.396984">
        <ele>481.760000</ele>
        <time>2009-06-21T12:19:45Z</time>
      </trkpt>
      <trkpt lat="50.654719" lon="6.396806">
        <ele>481.280000</ele>
        <time>2009-06-21T12:19:31Z</time>
      </trkpt>
      <trkpt lat="50.654671" lon="6.396751">
        <ele>480.800000</ele>
        <time>2009-06-21T12:19:26Z</time>
      </trkpt>
      <trkpt lat="50.654502" lon="6.396594">
        <ele>480.320000</ele>
        <time>2009-06-21T12:19:12Z</time>
      </trkpt>
      <trkpt lat="50.654376" lon="6.396456">
        <ele>480.800000</ele>
        <time>2009-06-21T12:19:00Z</time>
      </trkpt>
      <trkpt lat="50.654240" lon="6.396210">
        <ele>479.840000</ele>
        <time>2009-06-21T12:18:46Z</time>
      </trkpt>
      <trkpt lat="50.654096" lon="6.395954">
        <ele>479.840000</ele>
        <time>2009-06-21T12:18:29Z</time>
      </trkpt>
      <trkpt lat="50.653928" lon="6.395768">
        <ele>478.870000</ele>
        <time>2009-06-21T12:18:13Z</time>
      </trkpt>
      <trkpt lat="50.653812" lon="6.395447">
        <ele>478.390000</ele>
        <time>2009-06-21T12:17:58Z</time>
      </trkpt>
      <trkpt lat="50.653714" lon="6.395395"/>
      <trkpt lat="50.653391" lon="6.394913"/>
      <trkpt lat="50.653104" lon="6.394517"/>
      <trkpt lat="50.652708" lon="6.394120"/>
      <trkpt lat="50.652187" lon="6.393553"/>
      <trkpt lat="50.651720" lon="6.393100"/>
      <trkpt lat="50.651469" lon="6.392420"/>
      <trkpt lat="50.651091" lon="6.391740"/>
      <trkpt lat="50.650696" lon="6.391258"/>
      <trkpt lat="50.650193" lon="6.390805"/>
      <trkpt lat="50.649708" lon="6.390493"/>
      <trkpt lat="50.649025" lon="6.390380"/>
      <trkpt lat="50.648504" lon="6.390153"/>
      <trkpt lat="50.647983" lon="6.390012"/>
      <trkpt lat="50.647480" lon="6.389898"/>
      <trkpt lat="50.647049" lon="6.389927"/>
      <trkpt lat="50.646779" lon="6.389870"/>
      <trkpt lat="50.646510" lon="6.389587"/>
      <trkpt lat="50.646312" lon="6.388992"/>
      <trkpt lat="50.646025" lon="6.388481"/>
      <trkpt lat="50.645845" lon="6.388000"/>
      <trkpt lat="50.645648" lon="6.387546"/>
      <trkpt lat="50.645630" lon="6.387490"/>
      <trkpt lat="50.645324" lon="6.387178"/>
      <trkpt lat="50.645037" lon="6.386866"/>
      <trkpt lat="50.644695" lon="6.386725"/>
      <trkpt lat="50.644300" lon="6.386271"/>
      <trkpt lat="50.643995" lon="6.386130"/>
      <trkpt lat="50.644013" lon="6.386158"/>
      <trkpt lat="50.643761" lon="6.385931"/>
      <trkpt lat="50.643806" lon="6.386287"/>
      <trkpt lat="50.643645" lon="6.386853"/>
      <trkpt lat="50.643447" lon="6.386938"/>
      <trkpt lat="50.643177" lon="6.387052"/>
      <trkpt lat="50.642854" lon="6.387193"/>
      <trkpt lat="50.642387" lon="6.387420"/>
      <trkpt lat="50.641956" lon="6.387562"/>
      <trkpt lat="50.641722" lon="6.387675"/>
      <trkpt lat="50.641704" lon="6.387675"/>
      <trkpt lat="50.641471" lon="6.387845"/>
      <trkpt lat="50.641237" lon="6.388213"/>
      <trkpt lat="50.641237" lon="6.388242"/>
      <trkpt lat="50.641022" lon="6.388695"/>
      <trkpt lat="50.640878" lon="6.389177"/>
      <trkpt lat="50.640590" lon="6.389715"/>
      <trkpt lat="50.640231" lon="6.389658"/>
      <trkpt lat="50.639944" lon="6.389658"/>
      <trkpt lat="50.639926" lon="6.389630"/>
      <trkpt lat="50.639566" lon="6.389431"/>
      <trkpt lat="50.639207" lon="6.389233"/>
      <trkpt lat="50.638937" lon="6.389233"/>
      <trkpt lat="50.638668" lon="6.389658"/>
      <trkpt lat="50.638380" lon="6.390168"/>
      <trkpt lat="50.637931" lon="6.390678"/>
      <trkpt lat="50.637482" lon="6.391018"/>
      <trkpt lat="50.637482" lon="6.391046"/>
      <trkpt lat="50.636997" lon="6.391386"/>
      <trkpt lat="50.636710" lon="6.391840"/>
      <trkpt lat="50.636763" lon="6.391868"/>
      <trkpt lat="50.636404" lon="6.392265"/>
      <trkpt lat="50.636135" lon="6.392293"/>
      <trkpt lat="50.635686" lon="6.392293"/>
      <trkpt lat="50.635290" lon="6.392321"/>
      <trkpt lat="50.634985" lon="6.392378"/>
      <trkpt lat="50.634769" lon="6.392435"/>
      <trkpt lat="50.634536" lon="6.392520"/>
      <trkpt lat="50.634410" lon="6.392633"/>
      <trkpt lat="50.634643" lon="6.392236"/>
      <trkpt lat="50.634661" lon="6.392236"/>
      <trkpt lat="50.635057" lon="6.392038"/>
      <trkpt lat="50.635093" lon="6.392010"/>
      <trkpt lat="50.635560" lon="6.391670"/>
      <trkpt lat="50.635973" lon="6.391585"/>
      <trkpt lat="50.636171" lon="6.391330"/>
      <trkpt lat="50.636368" lon="6.391131"/>
      <trkpt lat="50.636620" lon="6.390848"/>
      <trkpt lat="50.636782" lon="6.390508"/>
      <trkpt lat="50.637141" lon="6.389743"/>
      <trkpt lat="50.637536" lon="6.389120"/>
      <trkpt lat="50.637806" lon="6.388553"/>
      <trkpt lat="50.638147" lon="6.387987"/>
      <trkpt lat="50.638524" lon="6.387618"/>
      <trkpt lat="50.638884" lon="6.387420"/>
      <trkpt lat="50.638991" lon="6.387137"/>
      <trkpt lat="50.639081" lon="6.386542"/>
      <trkpt lat="50.639207" lon="6.386060"/>
      <trkpt lat="50.639279" lon="6.385579"/>
      <trkpt lat="50.639270" lon="6.385532">
        <ele>304.000000</ele>
        <time>2009-06-20T18:36:28Z</time>
      </trkpt>
      <trkpt lat="50.639075" lon="6.385170"/>
      <trkpt lat="50.639040" lon="6.385153"/>
      <trkpt lat="50.638991" lon="6.385153"/>
      <trkpt lat="50.638954" lon="6.385174"/>
      <trkpt lat="50.638954" lon="6.385192"/>
      <trkpt lat="50.638897" lon="6.385221"/>
      <trkpt lat="50.638897" lon="6.385230"/>
      <trkpt lat="50.638843" lon="6.385285"/>
      <trkpt lat="50.638843" lon="6.385294"/>
      <trkpt lat="50.638792" lon="6.385357"/>
      <trkpt lat="50.638792" lon="6.385361"/>
      <trkpt lat="50.638743" lon="6.385417"/>
      <trkpt lat="50.638743" lon="6.385421"/>
      <trkpt lat="50.638681" lon="6.385527"/>
      <trkpt lat="50.638603" lon="6.385663"/>
      <trkpt lat="50.638603" lon="6.385667"/>
      <trkpt lat="50.638533" lon="6.385786"/>
      <trkpt lat="50.638533" lon="6.385795"/>
      <trkpt lat="50.638469" lon="6.385931"/>
      <trkpt lat="50.638466" lon="6.385931"/>
      <trkpt lat="50.638382" lon="6.386067"/>
      <trkpt lat="50.638280" lon="6.386186"/>
      <trkpt lat="50.638283" lon="6.386190"/>
      <trkpt lat="50.638194" lon="6.386322"/>
      <trkpt lat="50.638080" lon="6.386462"/>
      <trkpt lat="50.637956" lon="6.386598"/>
      <trkpt lat="50.637865" lon="6.386734"/>
      <trkpt lat="50.637771" lon="6.386840"/>
      <trkpt lat="50.637668" lon="6.386972"/>
      <trkpt lat="50.637668" lon="6.386976"/>
      <trkpt lat="50.637593" lon="6.387074"/>
      <trkpt lat="50.637498" lon="6.387180"/>
      <trkpt lat="50.637372" lon="6.387312"/>
      <trkpt lat="50.637213" lon="6.387473"/>
      <trkpt lat="50.637094" lon="6.387567"/>
      <trkpt lat="50.636978" lon="6.387686"/>
      <trkpt lat="50.636884" lon="6.387775"/>
      <trkpt lat="50.636806" lon="6.387847"/>
      <trkpt lat="50.636752" lon="6.387954"/>
      <trkpt lat="50.636693" lon="6.388102"/>
      <trkpt lat="50.636642" lon="6.388194"/>
      <trkpt lat="50.636581" lon="6.388330"/>
      <trkpt lat="50.636486" lon="6.388525"/>
      <trkpt lat="50.636416" lon="6.388674"/>
      <trkpt lat="50.636354" lon="6.388793"/>
      <trkpt lat="50.636284" lon="6.388971"/>
      <trkpt lat="50.636203" lon="6.389112"/>
      <trkpt lat="50.636200" lon="6.389112"/>
      <trkpt lat="50.636144" lon="6.389184"/>
      <trkpt lat="50.636144" lon="6.389180"/>
      <trkpt lat="50.636106" lon="6.389205"/>
      <trkpt lat="50.635988" lon="6.389209"/>
      <trkpt lat="50.635912" lon="6.389192"/>
      <trkpt lat="50.635839" lon="6.389201"/>
      <trkpt lat="50.635791" lon="6.389226"/>
      <trkpt lat="50.635794" lon="6.389226"/>
      <trkpt lat="50.635697" lon="6.389396"/>
      <trkpt lat="50.635699" lon="6.389396"/>
      <trkpt lat="50.635659" lon="6.389439"/>
      <trkpt lat="50.635602" lon="6.389447"/>
      <trkpt lat="50.635547" lon="6.389433"/>
      <trkpt lat="50.635547" lon="6.389429"/>
      <trkpt lat="50.635455" lon="6.389386"/>
      <trkpt lat="50.635380" lon="6.389339"/>
      <trkpt lat="50.635310" lon="6.389339"/>
      <trkpt lat="50.635231" lon="6.389356"/>
      <trkpt lat="50.635137" lon="6.389407"/>
      <trkpt lat="50.635059" lon="6.389458"/>
      <trkpt lat="50.634989" lon="6.389488"/>
      <trkpt lat="50.634916" lon="6.389509"/>
      <trkpt lat="50.634849" lon="6.389543"/>
      <trkpt lat="50.634757" lon="6.389505"/>
      <trkpt lat="50.634700" lon="6.389467"/>
      <trkpt lat="50.634703" lon="6.389467"/>
      <trkpt lat="50.634636" lon="6.389446"/>
      <trkpt lat="50.634647" lon="6.389446"/>
      <trkpt lat="50.634603" lon="6.389420"/>
      <trkpt lat="50.634544" lon="6.389475"/>
      <trkpt lat="50.634541" lon="6.389480"/>
      <trkpt lat="50.634461" lon="6.389518"/>
      <trkpt lat="50.634404" lon="6.389548"/>
      <trkpt lat="50.634321" lon="6.389556"/>
      <trkpt lat="50.634221" lon="6.389556"/>
      <trkpt lat="50.634124" lon="6.389565"/>
      <trkpt lat="50.634059" lon="6.389565"/>
      <trkpt lat="50.633989" lon="6.389577"/>
      <trkpt lat="50.633887" lon="6.389616"/>
      <trkpt lat="50.633819" lon="6.389633"/>
      <trkpt lat="50.633766" lon="6.389652"/>
      <trkpt lat="50.633675" lon="6.389665"/>
      <trkpt lat="50.633586" lon="6.389652"/>
      <trkpt lat="50.633497" lon="6.389643"/>
      <trkpt lat="50.633489" lon="6.389643"/>
      <trkpt lat="50.633451" lon="6.389643"/>
      <trkpt lat="50.633386" lon="6.389690"/>
      <trkpt lat="50.633351" lon="6.389669"/>
      <trkpt lat="50.633249" lon="6.389550"/>
      <trkpt lat="50.633171" lon="6.389457"/>
      <trkpt lat="50.633093" lon="6.389367"/>
      <trkpt lat="50.633033" lon="6.389282"/>
      <trkpt lat="50.633033" lon="6.389278"/>
      <trkpt lat="50.632977" lon="6.389202"/>
      <trkpt lat="50.632909" lon="6.389189"/>
      <trkpt lat="50.632909" lon="6.389185"/>
      <trkpt lat="50.632788" lon="6.389125"/>
      <trkpt lat="50.632688" lon="6.389074"/>
      <trkpt lat="50.632572" lon="6.389015"/>
      <trkpt lat="50.632475" lon="6.388977"/>
      <trkpt lat="50.632438" lon="6.388955"/>
      <trkpt lat="50.632403" lon="6.388879"/>
      <trkpt lat="50.632349" lon="6.388790"/>
      <trkpt lat="50.632306" lon="6.388713"/>
      <trkpt lat="50.632262" lon="6.388607"/>
      <trkpt lat="50.632206" lon="6.388458"/>
      <trkpt lat="50.632157" lon="6.388284"/>
      <trkpt lat="50.632120" lon="6.388114"/>
      <trkpt lat="50.632120" lon="6.388110"/>
      <trkpt lat="50.632095" lon="6.387893"/>
      <trkpt lat="50.632058" lon="6.387711"/>
      <trkpt lat="50.632023" lon="6.387519"/>
      <trkpt lat="50.632006" lon="6.387332"/>
      <trkpt lat="50.631982" lon="6.387243"/>
      <trkpt lat="50.631966" lon="6.387137"/>
      <trkpt lat="50.631953" lon="6.387048"/>
      <trkpt lat="50.631961" lon="6.386908"/>
      <trkpt lat="50.631970" lon="6.386846"/>
      <trkpt lat="50.631973" lon="6.386817"/>
      <trkpt lat="50.631919" lon="6.386817"/>
      <trkpt lat="50.631846" lon="6.386846"/>
      <trkpt lat="50.631784" lon="6.386867"/>
      <trkpt lat="50.631703" lon="6.386897"/>
      <trkpt lat="50.631652" lon="6.386923"/>
      <trkpt lat="50.631611" lon="6.386978"/>
      <trkpt lat="50.631582" lon="6.387016"/>
      <trkpt lat="50.631595" lon="6.387182"/>
      <trkpt lat="50.631606" lon="6.387280"/>
      <trkpt lat="50.631617" lon="6.387377"/>
      <trkpt lat="50.631620" lon="6.387377"/>
      <trkpt lat="50.631625" lon="6.387471"/>
      <trkpt lat="50.631636" lon="6.387628"/>
      <trkpt lat="50.631633" lon="6.387849"/>
      <trkpt lat="50.631630" lon="6.388049"/>
      <trkpt lat="50.631625" lon="6.388304"/>
      <trkpt lat="50.631641" lon="6.388448"/>
      <trkpt lat="50.631657" lon="6.388580"/>
      <trkpt lat="50.631684" lon="6.388686"/>
      <trkpt lat="50.631676" lon="6.388826"/>
      <trkpt lat="50.631676" lon="6.388937"/>
      <trkpt lat="50.631671" lon="6.389005"/>
      <trkpt lat="50.631641" lon="6.388894"/>
      <trkpt lat="50.631601" lon="6.388809"/>
      <trkpt lat="50.631560" lon="6.388694"/>
      <trkpt lat="50.631517" lon="6.388592"/>
      <trkpt lat="50.631488" lon="6.388486"/>
      <trkpt lat="50.631431" lon="6.388337"/>
      <trkpt lat="50.631374" lon="6.388176"/>
      <trkpt lat="50.631291" lon="6.387951"/>
      <trkpt lat="50.631237" lon="6.387811"/>
      <trkpt lat="50.631191" lon="6.387692"/>
      <trkpt lat="50.631188" lon="6.387687"/>
      <trkpt lat="50.631156" lon="6.387590"/>
      <trkpt lat="50.631143" lon="6.387467"/>
      <trkpt lat="50.631116" lon="6.387271"/>
      <trkpt lat="50.631102" lon="6.387118"/>
      <trkpt lat="50.631094" lon="6.387025"/>
      <trkpt lat="50.631094" lon="6.386974"/>
      <trkpt lat="50.631059" lon="6.386923"/>
      <trkpt lat="50.631056" lon="6.386876"/>
      <trkpt lat="50.631008" lon="6.386846"/>
      <trkpt lat="50.630919" lon="6.386812"/>
      <trkpt lat="50.630873" lon="6.386812"/>
      <trkpt lat="50.630808" lon="6.386821"/>
      <trkpt lat="50.630728" lon="6.386850"/>
      <trkpt lat="50.630722" lon="6.386850"/>
      <trkpt lat="50.630657" lon="6.386876"/>
      <trkpt lat="50.630606" lon="6.386872"/>
      <trkpt lat="50.630504" lon="6.386829"/>
      <trkpt lat="50.630426" lon="6.386778"/>
      <trkpt lat="50.630358" lon="6.386753"/>
      <trkpt lat="50.630356" lon="6.386753"/>
      <trkpt lat="50.630330" lon="6.386883"/>
      <trkpt lat="50.630303" lon="6.386993"/>
      <trkpt lat="50.630298" lon="6.387001"/>
      <trkpt lat="50.630260" lon="6.387146"/>
      <trkpt lat="50.630233" lon="6.387299"/>
      <trkpt lat="50.630198" lon="6.387388"/>
      <trkpt lat="50.630195" lon="6.387397"/>
      <trkpt lat="50.630182" lon="6.387469"/>
      <trkpt lat="50.630179" lon="6.387482"/>
      <trkpt lat="50.630155" lon="6.387558"/>
      <trkpt lat="50.630152" lon="6.387562"/>
      <trkpt lat="50.630120" lon="6.387609"/>
      <trkpt lat="50.630068" lon="6.387605"/>
      <trkpt lat="50.630017" lon="6.387579"/>
      <trkpt lat="50.629966" lon="6.387473"/>
      <trkpt lat="50.629899" lon="6.387358"/>
      <trkpt lat="50.629896" lon="6.387358"/>
      <trkpt lat="50.629815" lon="6.387239"/>
      <trkpt lat="50.629756" lon="6.387116"/>
      <trkpt lat="50.629702" lon="6.387014"/>
      <trkpt lat="50.629629" lon="6.386895"/>
      <trkpt lat="50.629529" lon="6.386759"/>
      <trkpt lat="50.629478" lon="6.386662"/>
      <trkpt lat="50.629427" lon="6.386568"/>
      <trkpt lat="50.629373" lon="6.386483"/>
      <trkpt lat="50.629325" lon="6.386398"/>
      <trkpt lat="50.629268" lon="6.386305"/>
      <trkpt lat="50.629190" lon="6.386203"/>
      <trkpt lat="50.629114" lon="6.386114"/>
      <trkpt lat="50.629117" lon="6.386114"/>
      <trkpt lat="50.629044" lon="6.386042"/>
      <trkpt lat="50.628942" lon="6.385940"/>
      <trkpt lat="50.628869" lon="6.385850"/>
      <trkpt lat="50.628794" lon="6.385766"/>
      <trkpt lat="50.628715" lon="6.385676"/>
      <trkpt lat="50.628629" lon="6.385583"/>
      <trkpt lat="50.628629" lon="6.385587"/>
      <trkpt lat="50.628519" lon="6.385498"/>
      <trkpt lat="50.628416" lon="6.385400"/>
      <trkpt lat="50.628298" lon="6.385302"/>
      <trkpt lat="50.628230" lon="6.385217"/>
      <trkpt lat="50.628190" lon="6.385162"/>
      <trkpt lat="50.628163" lon="6.385065"/>
      <trkpt lat="50.628131" lon="6.384946"/>
      <trkpt lat="50.628114" lon="6.384899"/>
      <trkpt lat="50.628079" lon="6.384764"/>
      <trkpt lat="50.628049" lon="6.384640"/>
      <trkpt lat="50.628004" lon="6.384470"/>
      <trkpt lat="50.627960" lon="6.384364"/>
      <trkpt lat="50.627952" lon="6.384343"/>
      <trkpt lat="50.627947" lon="6.384334"/>
      <trkpt lat="50.627933" lon="6.384258"/>
      <trkpt lat="50.627933" lon="6.383999"/>
      <trkpt lat="50.627907" lon="6.383850"/>
      <trkpt lat="50.627858" lon="6.383625"/>
      <trkpt lat="50.627826" lon="6.383451"/>
      <trkpt lat="50.627799" lon="6.383277"/>
      <trkpt lat="50.627780" lon="6.383132"/>
      <trkpt lat="50.627758" lon="6.382992"/>
      <trkpt lat="50.627723" lon="6.382856"/>
      <trkpt lat="50.627590" lon="6.382810"/>
      <trkpt lat="50.627428" lon="6.382782"/>
      <trkpt lat="50.627428" lon="6.382796"/>
      <trkpt lat="50.627356" lon="6.382796"/>
      <trkpt lat="50.627356" lon="6.382810"/>
      <trkpt lat="50.627276" lon="6.383065"/>
      <trkpt lat="50.627258" lon="6.383221"/>
      <trkpt lat="50.627258" lon="6.383235"/>
      <trkpt lat="50.627222" lon="6.383546"/>
      <trkpt lat="50.627222" lon="6.383787"/>
      <trkpt lat="50.627222" lon="6.384085"/>
      <trkpt lat="50.627222" lon="6.384424"/>
      <trkpt lat="50.627222" lon="6.384439"/>
      <trkpt lat="50.627213" lon="6.384665"/>
      <trkpt lat="50.627213" lon="6.384679"/>
      <trkpt lat="50.627213" lon="6.385076"/>
      <trkpt lat="50.627213" lon="6.385090"/>
      <trkpt lat="50.627168" lon="6.385614"/>
      <trkpt lat="50.627159" lon="6.385911"/>
      <trkpt lat="50.627186" lon="6.386322"/>
      <trkpt lat="50.627204" lon="6.386605"/>
      <trkpt lat="50.627249" lon="6.386931"/>
      <trkpt lat="50.627347" lon="6.387427"/>
      <trkpt lat="50.627446" lon="6.387681"/>
      <trkpt lat="50.627527" lon="6.387936"/>
      <trkpt lat="50.627680" lon="6.388404"/>
      <trkpt lat="50.627859" lon="6.388772"/>
      <trkpt lat="50.627976" lon="6.389027"/>
      <trkpt lat="50.628120" lon="6.389381"/>
      <trkpt lat="50.628246" lon="6.389763"/>
      <trkpt lat="50.628335" lon="6.390032"/>
      <trkpt lat="50.628389" lon="6.390315"/>
      <trkpt lat="50.628425" lon="6.390570"/>
      <trkpt lat="50.628488" lon="6.390896"/>
      <trkpt lat="50.628488" lon="6.391264"/>
      <trkpt lat="50.628488" lon="6.391434"/>
      <trkpt lat="50.628380" lon="6.391632"/>
      <trkpt lat="50.628210" lon="6.391788"/>
      <trkpt lat="50.628102" lon="6.391901"/>
      <trkpt lat="50.627940" lon="6.391958"/>
      <trkpt lat="50.627752" lon="6.391887"/>
      <trkpt lat="50.627743" lon="6.391887"/>
      <trkpt lat="50.627527" lon="6.391845"/>
      <trkpt lat="50.627401" lon="6.391816"/>
      <trkpt lat="50.627267" lon="6.391788"/>
      <trkpt lat="50.627213" lon="6.391576"/>
      <trkpt lat="50.627105" lon="6.391094"/>
      <trkpt lat="50.627051" lon="6.390839"/>
      <trkpt lat="50.627051" lon="6.390627"/>
      <trkpt lat="50.627051" lon="6.390386"/>
      <trkpt lat="50.626970" lon="6.390556"/>
      <trkpt lat="50.626835" lon="6.390655"/>
      <trkpt lat="50.626656" lon="6.390712"/>
      <trkpt lat="50.626476" lon="6.390726"/>
      <trkpt lat="50.626314" lon="6.390669"/>
      <trkpt lat="50.626117" lon="6.390400"/>
      <trkpt lat="50.626000" lon="6.390145"/>
      <trkpt lat="50.625919" lon="6.389777"/>
      <trkpt lat="50.625829" lon="6.389508"/>
      <trkpt lat="50.625838" lon="6.389508"/>
      <trkpt lat="50.625784" lon="6.389069"/>
      <trkpt lat="50.625721" lon="6.388843"/>
      <trkpt lat="50.625721" lon="6.388545"/>
      <trkpt lat="50.625703" lon="6.388021"/>
      <trkpt lat="50.625677" lon="6.387540"/>
      <trkpt lat="50.625641" lon="6.387143"/>
      <trkpt lat="50.625632" lon="6.386733"/>
      <trkpt lat="50.625623" lon="6.386407"/>
      <trkpt lat="50.625623" lon="6.386067"/>
      <trkpt lat="50.625650" lon="6.385571"/>
      <trkpt lat="50.625605" lon="6.385217"/>
      <trkpt lat="50.625605" lon="6.384934"/>
      <trkpt lat="50.625623" lon="6.384608"/>
      <trkpt lat="50.625641" lon="6.384410"/>
      <trkpt lat="50.625641" lon="6.384396"/>
      <trkpt lat="50.625540" lon="6.384251"/>
      <trkpt lat="50.625419" lon="6.384017"/>
      <trkpt lat="50.625324" lon="6.383571"/>
      <trkpt lat="50.625243" lon="6.383210"/>
      <trkpt lat="50.625230" lon="6.383040"/>
      <trkpt lat="50.625257" lon="6.382722"/>
      <trkpt lat="50.625230" lon="6.382467"/>
      <trkpt lat="50.625230" lon="6.382169"/>
      <trkpt lat="50.624987" lon="6.381745"/>
      <trkpt lat="50.624677" lon="6.381299"/>
      <trkpt lat="50.624516" lon="6.380980"/>
      <trkpt lat="50.624354" lon="6.380492"/>
      <trkpt lat="50.624165" lon="6.380130"/>
      <trkpt lat="50.623923" lon="6.379281"/>
      <trkpt lat="50.623640" lon="6.378474"/>
      <trkpt lat="50.623451" lon="6.377922"/>
      <trkpt lat="50.623101" lon="6.377051"/>
      <trkpt lat="50.622764" lon="6.376499"/>
      <trkpt lat="50.622535" lon="6.376775"/>
      <trkpt lat="50.622387" lon="6.377093"/>
      <trkpt lat="50.622252" lon="6.377242"/>
      <trkpt lat="50.621942" lon="6.377200"/>
      <trkpt lat="50.621673" lon="6.376987"/>
      <trkpt lat="50.621511" lon="6.376902"/>
      <trkpt lat="50.621457" lon="6.376711"/>
      <trkpt lat="50.621403" lon="6.376329"/>
      <trkpt lat="50.621376" lon="6.376053"/>
      <trkpt lat="50.621322" lon="6.375840"/>
      <trkpt lat="50.621241" lon="6.375692"/>
      <trkpt lat="50.621187" lon="6.375734"/>
      <trkpt lat="50.621039" lon="6.376074"/>
      <trkpt lat="50.620958" lon="6.376138"/>
      <trkpt lat="50.620824" lon="6.376095"/>
      <trkpt lat="50.620635" lon="6.375713"/>
      <trkpt lat="50.620365" lon="6.375585"/>
      <trkpt lat="50.620365" lon="6.375607"/>
      <trkpt lat="50.620069" lon="6.375607"/>
      <trkpt lat="50.619856" lon="6.375519"/>
      <trkpt lat="50.619569" lon="6.375519"/>
      <trkpt lat="50.619371" lon="6.375391"/>
      <trkpt lat="50.619182" lon="6.375179"/>
      <trkpt lat="50.619039" lon="6.374938"/>
      <trkpt lat="50.619030" lon="6.374938"/>
      <trkpt lat="50.618886" lon="6.374768"/>
      <trkpt lat="50.618796" lon="6.374570"/>
      <trkpt lat="50.618733" lon="6.374443"/>
      <trkpt lat="50.618598" lon="6.374344"/>
      <trkpt lat="50.618598" lon="6.374329"/>
      <trkpt lat="50.618410" lon="6.374174"/>
      <trkpt lat="50.618167" lon="6.373947"/>
      <trkpt lat="50.618006" lon="6.373820"/>
      <trkpt lat="50.617889" lon="6.373664"/>
      <trkpt lat="50.617745" lon="6.373452"/>
      <trkpt lat="50.617745" lon="6.373437"/>
      <trkpt lat="50.617592" lon="6.373310"/>
      <trkpt lat="50.617494" lon="6.373098"/>
      <trkpt lat="50.617305" lon="6.372885"/>
      <trkpt lat="50.617062" lon="6.372602"/>
      <trkpt lat="50.616829" lon="6.372390"/>
      <trkpt lat="50.616595" lon="6.372064"/>
      <trkpt lat="50.616469" lon="6.372149"/>
      <trkpt lat="50.616344" lon="6.372248"/>
      <trkpt lat="50.616281" lon="6.372531"/>
      <trkpt lat="50.616281" lon="6.372546"/>
      <trkpt lat="50.616362" lon="6.372815"/>
      <trkpt lat="50.616362" lon="6.372829"/>
      <trkpt lat="50.616424" lon="6.373112"/>
      <trkpt lat="50.616487" lon="6.373324"/>
      <trkpt lat="50.616496" lon="6.373324"/>
      <trkpt lat="50.616568" lon="6.373664"/>
      <trkpt lat="50.616613" lon="6.373905"/>
      <trkpt lat="50.616640" lon="6.374160"/>
      <trkpt lat="50.616667" lon="6.374414"/>
      <trkpt lat="50.616685" lon="6.374414"/>
      <trkpt lat="50.616721" lon="6.374683"/>
      <trkpt lat="50.616748" lon="6.375009"/>
      <trkpt lat="50.616757" lon="6.375321"/>
      <trkpt lat="50.616802" lon="6.375675"/>
      <trkpt lat="50.616847" lon="6.375958"/>
      <trkpt lat="50.616811" lon="6.375958"/>
      <trkpt lat="50.616802" lon="6.376184"/>
      <trkpt lat="50.616793" lon="6.376623"/>
      <trkpt lat="50.616793" lon="6.376779"/>
      <trkpt lat="50.616766" lon="6.377204"/>
      <trkpt lat="50.616964" lon="6.376991"/>
      <trkpt lat="50.617107" lon="6.376850"/>
      <trkpt lat="50.617269" lon="6.376765"/>
      <trkpt lat="50.617485" lon="6.376793"/>
      <trkpt lat="50.617727" lon="6.376878"/>
      <trkpt lat="50.617763" lon="6.376920"/>
      <trkpt lat="50.617979" lon="6.377005"/>
      <trkpt lat="50.618194" lon="6.377189"/>
      <trkpt lat="50.618419" lon="6.377402"/>
      <trkpt lat="50.618760" lon="6.377543"/>
      <trkpt lat="50.619101" lon="6.377586"/>
      <trkpt lat="50.619425" lon="6.377699"/>
      <trkpt lat="50.619721" lon="6.377756"/>
      <trkpt lat="50.619937" lon="6.377968"/>
      <trkpt lat="50.620188" lon="6.378025"/>
      <trkpt lat="50.620404" lon="6.378195"/>
      <trkpt lat="50.620431" lon="6.378237"/>
      <trkpt lat="50.620638" lon="6.378506"/>
      <trkpt lat="50.620871" lon="6.378761"/>
      <trkpt lat="50.621042" lon="6.379030"/>
      <trkpt lat="50.621230" lon="6.379186"/>
      <trkpt lat="50.621248" lon="6.379214"/>
      <trkpt lat="50.621410" lon="6.379426"/>
      <trkpt lat="50.621563" lon="6.379540"/>
      <trkpt lat="50.621608" lon="6.379809"/>
      <trkpt lat="50.621500" lon="6.379979"/>
      <trkpt lat="50.621311" lon="6.379993"/>
      <trkpt lat="50.621195" lon="6.380035"/>
      <trkpt lat="50.621186" lon="6.380049"/>
      <trkpt lat="50.620970" lon="6.380120"/>
      <trkpt lat="50.620763" lon="6.380205"/>
      <trkpt lat="50.620629" lon="6.380248"/>
      <trkpt lat="50.620404" lon="6.380347"/>
      <trkpt lat="50.620314" lon="6.380432"/>
      <trkpt lat="50.620179" lon="6.380502"/>
      <trkpt lat="50.620009" lon="6.380715"/>
      <trkpt lat="50.619838" lon="6.380913"/>
      <trkpt lat="50.619703" lon="6.381097"/>
      <trkpt lat="50.619524" lon="6.381295"/>
      <trkpt lat="50.619290" lon="6.381550"/>
      <trkpt lat="50.619084" lon="6.381748"/>
      <trkpt lat="50.618751" lon="6.382117"/>
      <trkpt lat="50.618652" lon="6.382289"/>
      <trkpt lat="50.618652" lon="6.382279"/>
      <trkpt lat="50.618539" lon="6.382388"/>
      <trkpt lat="50.618413" lon="6.382497"/>
      <trkpt lat="50.618281" lon="6.382546"/>
      <trkpt lat="50.618099" lon="6.382576"/>
      <trkpt lat="50.617948" lon="6.382645"/>
      <trkpt lat="50.617935" lon="6.382645"/>
      <trkpt lat="50.617841" lon="6.382685"/>
      <trkpt lat="50.617841" lon="6.382705"/>
      <trkpt lat="50.617765" lon="6.382754"/>
      <trkpt lat="50.617709" lon="6.382853"/>
      <trkpt lat="50.617721" lon="6.382863"/>
      <trkpt lat="50.617759" lon="6.383022"/>
      <trkpt lat="50.617765" lon="6.383171"/>
      <trkpt lat="50.617765" lon="6.383181"/>
      <trkpt lat="50.617740" lon="6.383379"/>
      <trkpt lat="50.617747" lon="6.383597"/>
      <trkpt lat="50.617741" lon="6.383775"/>
      <trkpt lat="50.617766" lon="6.383993"/>
      <trkpt lat="50.617829" lon="6.384063"/>
      <trkpt lat="50.617910" lon="6.384181"/>
      <trkpt lat="50.617910" lon="6.384201"/>
      <trkpt lat="50.617923" lon="6.384409"/>
      <trkpt lat="50.617917" lon="6.384657"/>
      <trkpt lat="50.617885" lon="6.384915"/>
      <trkpt lat="50.617879" lon="6.385153"/>
      <trkpt lat="50.617866" lon="6.385173"/>
      <trkpt lat="50.617841" lon="6.385480"/>
      <trkpt lat="50.617885" lon="6.385847"/>
      <trkpt lat="50.617986" lon="6.386084"/>
      <trkpt lat="50.618055" lon="6.386362"/>
      <trkpt lat="50.618068" lon="6.386639"/>
      <trkpt lat="50.618042" lon="6.386877"/>
      <trkpt lat="50.618005" lon="6.387095"/>
      <trkpt lat="50.617973" lon="6.387343"/>
      <trkpt lat="50.617979" lon="6.387541"/>
      <trkpt lat="50.618011" lon="6.387789"/>
      <trkpt lat="50.618024" lon="6.388047"/>
      <trkpt lat="50.618061" lon="6.388245"/>
      <trkpt lat="50.618061" lon="6.388423"/>
      <trkpt lat="50.618074" lon="6.388641"/>
      <trkpt lat="50.618099" lon="6.388988"/>
      <trkpt lat="50.618174" lon="6.389335"/>
      <trkpt lat="50.618256" lon="6.389682"/>
      <trkpt lat="50.618313" lon="6.389959"/>
      <trkpt lat="50.618351" lon="6.390187"/>
      <trkpt lat="50.618351" lon="6.390197"/>
      <trkpt lat="50.618376" lon="6.390366"/>
      <trkpt lat="50.618401" lon="6.390623"/>
      <trkpt lat="50.618470" lon="6.390832"/>
      <trkpt lat="50.618464" lon="6.391060"/>
      <trkpt lat="50.618464" lon="6.391069"/>
      <trkpt lat="50.618407" lon="6.391297"/>
      <trkpt lat="50.618395" lon="6.391307"/>
      <trkpt lat="50.618313" lon="6.391525"/>
      <trkpt lat="50.618181" lon="6.391823"/>
      <trkpt lat="50.618055" lon="6.391971"/>
      <trkpt lat="50.617910" lon="6.392041"/>
      <trkpt lat="50.617684" lon="6.392070"/>
      <trkpt lat="50.617584" lon="6.392061"/>
      <trkpt lat="50.617578" lon="6.392061"/>
      <trkpt lat="50.617483" lon="6.392071"/>
      <trkpt lat="50.617477" lon="6.392071"/>
      <trkpt lat="50.617383" lon="6.392061"/>
      <trkpt lat="50.617282" lon="6.392081"/>
      <trkpt lat="50.617251" lon="6.392120"/>
      <trkpt lat="50.617238" lon="6.392140"/>
      <trkpt lat="50.617169" lon="6.392180"/>
      <trkpt lat="50.617150" lon="6.392180"/>
      <trkpt lat="50.617075" lon="6.392249"/>
      <trkpt lat="50.616980" lon="6.392408"/>
      <trkpt lat="50.616974" lon="6.392408"/>
      <trkpt lat="50.616899" lon="6.392467"/>
      <trkpt lat="50.616861" lon="6.392467"/>
      <trkpt lat="50.616754" lon="6.392527"/>
      <trkpt lat="50.616578" lon="6.392635"/>
      <trkpt lat="50.616421" lon="6.392695"/>
      <trkpt lat="50.616257" lon="6.392824"/>
      <trkpt lat="50.616144" lon="6.392923"/>
      <trkpt lat="50.616144" lon="6.392933"/>
      <trkpt lat="50.616050" lon="6.393012"/>
      <trkpt lat="50.615955" lon="6.393131"/>
      <trkpt lat="50.615949" lon="6.393131"/>
      <trkpt lat="50.615842" lon="6.393171"/>
      <trkpt lat="50.615723" lon="6.393250"/>
      <trkpt lat="50.615572" lon="6.393270"/>
      <trkpt lat="50.615433" lon="6.393260"/>
      <trkpt lat="50.615283" lon="6.393181"/>
      <trkpt lat="50.615088" lon="6.393121"/>
      <trkpt lat="50.614937" lon="6.393042"/>
      <trkpt lat="50.614717" lon="6.392953"/>
      <trkpt lat="50.614509" lon="6.392883"/>
      <trkpt lat="50.614339" lon="6.392774"/>
      <trkpt lat="50.614195" lon="6.392675"/>
      <trkpt lat="50.614100" lon="6.392467"/>
      <trkpt lat="50.613987" lon="6.392269"/>
      <trkpt lat="50.613843" lon="6.392081"/>
      <trkpt lat="50.613723" lon="6.391892"/>
      <trkpt lat="50.613723" lon="6.391882"/>
      <trkpt lat="50.613597" lon="6.391654"/>
      <trkpt lat="50.613434" lon="6.391446"/>
      <trkpt lat="50.613384" lon="6.391278"/>
      <trkpt lat="50.613302" lon="6.391179"/>
      <trkpt lat="50.613302" lon="6.391169"/>
      <trkpt lat="50.613224" lon="6.391045"/>
      <trkpt lat="50.613123" lon="6.390867"/>
      <trkpt lat="50.613023" lon="6.390669"/>
      <trkpt lat="50.612953" lon="6.390510"/>
      <trkpt lat="50.612853" lon="6.390272"/>
      <trkpt lat="50.612784" lon="6.390044"/>
      <trkpt lat="50.612677" lon="6.389886"/>
      <trkpt lat="50.612620" lon="6.389717"/>
      <trkpt lat="50.612614" lon="6.389717"/>
      <trkpt lat="50.612526" lon="6.389569"/>
      <trkpt lat="50.612463" lon="6.389380"/>
      <trkpt lat="50.612413" lon="6.389192"/>
      <trkpt lat="50.612406" lon="6.389182"/>
      <trkpt lat="50.612343" lon="6.388974"/>
      <trkpt lat="50.612337" lon="6.388964"/>
      <trkpt lat="50.612262" lon="6.388835"/>
      <trkpt lat="50.612161" lon="6.388657"/>
      <trkpt lat="50.612136" lon="6.388429"/>
      <trkpt lat="50.612142" lon="6.388429"/>
      <trkpt lat="50.612105" lon="6.388122"/>
      <trkpt lat="50.612105" lon="6.387706"/>
      <trkpt lat="50.612130" lon="6.387190"/>
      <trkpt lat="50.612117" lon="6.386784"/>
      <trkpt lat="50.612105" lon="6.386318"/>
      <trkpt lat="50.612105" lon="6.385971"/>
      <trkpt lat="50.612098" lon="6.385605"/>
      <trkpt lat="50.612098" lon="6.385595"/>
      <trkpt lat="50.612054" lon="6.385308"/>
      <trkpt lat="50.612017" lon="6.385020"/>
      <trkpt lat="50.611954" lon="6.384852"/>
      <trkpt lat="50.611803" lon="6.384614"/>
      <trkpt lat="50.611677" lon="6.384505"/>
      <trkpt lat="50.611507" lon="6.384416"/>
      <trkpt lat="50.611356" lon="6.384346"/>
      <trkpt lat="50.611180" lon="6.384346"/>
      <trkpt lat="50.610954" lon="6.384376"/>
      <trkpt lat="50.610954" lon="6.384386"/>
      <trkpt lat="50.610639" lon="6.384554"/>
      <trkpt lat="50.610407" lon="6.384644"/>
      <trkpt lat="50.610187" lon="6.384733"/>
      <trkpt lat="50.609985" lon="6.384812"/>
      <trkpt lat="50.609866" lon="6.384852"/>
      <trkpt lat="50.609697" lon="6.384931"/>
      <trkpt lat="50.609640" lon="6.384971"/>
      <trkpt lat="50.609546" lon="6.384971"/>
      <trkpt lat="50.609464" lon="6.384991"/>
      <trkpt lat="50.609363" lon="6.385080"/>
      <trkpt lat="50.609256" lon="6.385199"/>
      <trkpt lat="50.609156" lon="6.385209"/>
      <trkpt lat="50.609068" lon="6.385298"/>
      <trkpt lat="50.608967" lon="6.385397"/>
      <trkpt lat="50.608816" lon="6.385536"/>
      <trkpt lat="50.608703" lon="6.385506"/>
      <trkpt lat="50.608571" lon="6.385516"/>
      <trkpt lat="50.608470" lon="6.385387"/>
      <trkpt lat="50.608345" lon="6.385328"/>
      <trkpt lat="50.608194" lon="6.385219"/>
      <trkpt lat="50.608011" lon="6.385120"/>
      <trkpt lat="50.607823" lon="6.385030"/>
      <trkpt lat="50.607653" lon="6.384852"/>
      <trkpt lat="50.607521" lon="6.384614"/>
      <trkpt lat="50.607414" lon="6.384367"/>
      <trkpt lat="50.607357" lon="6.384188"/>
      <trkpt lat="50.607276" lon="6.383921"/>
      <trkpt lat="50.607276" lon="6.383604"/>
      <trkpt lat="50.607244" lon="6.383405"/>
      <trkpt lat="50.607244" lon="6.383395"/>
      <trkpt lat="50.607206" lon="6.383227"/>
      <trkpt lat="50.607046" lon="6.383411"/>
      <trkpt lat="50.606852" lon="6.383639"/>
      <trkpt lat="50.606688" lon="6.383837"/>
      <trkpt lat="50.606525" lon="6.384025"/>
      <trkpt lat="50.606349" lon="6.384213"/>
      <trkpt lat="50.606229" lon="6.384362"/>
      <trkpt lat="50.606047" lon="6.384629"/>
      <trkpt lat="50.605827" lon="6.384857"/>
      <trkpt lat="50.605663" lon="6.385085"/>
      <trkpt lat="50.605462" lon="6.385303"/>
      <trkpt lat="50.605462" lon="6.385313"/>
      <trkpt lat="50.605317" lon="6.385482"/>
      <trkpt lat="50.605273" lon="6.385541"/>
      <trkpt lat="50.605424" lon="6.385670"/>
      <trkpt lat="50.605575" lon="6.385828"/>
      <trkpt lat="50.605745" lon="6.386046"/>
      <trkpt lat="50.605915" lon="6.386274"/>
      <trkpt lat="50.606097" lon="6.386482"/>
      <trkpt lat="50.606248" lon="6.386641"/>
      <trkpt lat="50.606380" lon="6.386789"/>
      <trkpt lat="50.606474" lon="6.386918"/>
      <trkpt lat="50.606833" lon="6.387404"/>
      <trkpt lat="50.607009" lon="6.387622"/>
      <trkpt lat="50.607015" lon="6.387622"/>
      <trkpt lat="50.607147" lon="6.387919"/>
      <trkpt lat="50.607229" lon="6.388157"/>
      <trkpt lat="50.607273" lon="6.388375"/>
      <trkpt lat="50.607342" lon="6.388593"/>
      <trkpt lat="50.607342" lon="6.388613"/>
      <trkpt lat="50.607386" lon="6.388870"/>
      <trkpt lat="50.607386" lon="6.388890"/>
      <trkpt lat="50.607424" lon="6.389108"/>
      <trkpt lat="50.607480" lon="6.389336"/>
      <trkpt lat="50.607537" lon="6.389752"/>
    </trkseg>
  </trk>

</gpx>
